TimeCST,TemperatureF,Dew PointF,Humidity,Sea Level PressureIn,VisibilityMPH,Wind Direction,Wind SpeedMPH,Gust SpeedMPH,PrecipitationIn,Events,Conditions,WindDirDegrees,DateUTC
12:15 AM,24.4,16.0,70,30.22,10.0,NNW,15.0,-,N/A,,Clear,340,2013-02-16 06:15:00
12:55 AM,23.7,16.3,73,30.21,10.0,NNW,12.7,-,N/A,,Clear,340,2013-02-16 06:55:00
1:15 AM,23.5,16.0,73,30.21,10.0,NNW,12.7,-,N/A,,Clear,330,2013-02-16 07:15:00
1:35 AM,23.0,15.8,74,30.20,10.0,NNW,15.0,18.4,N/A,,Clear,340,2013-02-16 07:35:00
1:55 AM,23.0,15.4,73,30.20,10.0,NNW,16.1,-,N/A,,Clear,340,2013-02-16 07:55:00
2:15 AM,22.6,14.9,72,30.20,10.0,NNW,11.5,-,N/A,,Clear,340,2013-02-16 08:15:00
2:35 AM,22.5,15.3,74,30.21,10.0,NNW,11.5,-,N/A,,Clear,330,2013-02-16 08:35:00
2:55 AM,22.5,15.8,76,30.20,10.0,NW,11.5,-,N/A,,Clear,320,2013-02-16 08:55:00
3:15 AM,21.9,15.4,76,30.20,10.0,NNW,11.5,-,N/A,,Clear,330,2013-02-16 09:15:00
3:35 AM,21.9,15.4,76,30.21,10.0,NW,10.4,-,N/A,,Clear,320,2013-02-16 09:35:00
3:55 AM,21.7,15.3,76,30.20,10.0,NNW,13.8,-,N/A,,Clear,330,2013-02-16 09:55:00
4:15 AM,21.4,14.7,75,30.20,10.0,NW,10.4,-,N/A,,Clear,320,2013-02-16 10:15:00
4:35 AM,21.2,14.9,77,30.21,10.0,NW,11.5,-,N/A,,Clear,320,2013-02-16 10:35:00
5:15 AM,21.2,14.7,76,30.21,10.0,NNW,12.7,-,N/A,,Mostly Cloudy,330,2013-02-16 11:15:00
5:35 AM,20.7,14.7,78,30.21,10.0,NW,15.0,-,N/A,,Mostly Cloudy,320,2013-02-16 11:35:00
5:55 AM,20.5,14.2,77,30.22,10.0,NW,10.4,-,N/A,,Overcast,320,2013-02-16 11:55:00
6:15 AM,19.9,14.4,79,30.22,10.0,NNW,12.7,-,N/A,,Mostly Cloudy,330,2013-02-16 12:15:00
6:35 AM,19.4,14.4,81,30.22,10.0,NNW,9.2,-,N/A,,Clear,330,2013-02-16 12:35:00
6:55 AM,19.4,14.0,80,30.22,10.0,NW,9.2,-,N/A,,Clear,320,2013-02-16 12:55:00
7:15 AM,19.4,13.8,79,30.23,10.0,NNW,11.5,-,N/A,,Scattered Clouds,330,2013-02-16 13:15:00
7:35 AM,19.2,12.7,76,30.23,10.0,NNW,10.4,-,N/A,,Scattered Clouds,340,2013-02-16 13:35:00
7:55 AM,19.9,12.4,72,30.24,10.0,NW,13.8,-,N/A,,Clear,320,2013-02-16 13:55:00
8:15 AM,20.3,10.9,67,30.24,10.0,NNW,11.5,-,N/A,,Clear,330,2013-02-16 14:15:00
8:35 AM,20.5,11.3,68,30.25,10.0,NW,12.7,-,N/A,,Clear,310,2013-02-16 14:35:00
8:55 AM,20.8,10.0,63,30.25,10.0,NNW,12.7,-,N/A,,Clear,330,2013-02-16 14:55:00
9:15 AM,20.8,8.6,59,30.25,10.0,NW,11.5,-,N/A,,Clear,320,2013-02-16 15:15:00
9:35 AM,21.7,9.1,58,30.25,10.0,NNW,11.5,-,N/A,,Clear,330,2013-02-16 15:35:00
12:15 PM,27.5,13.6,56,30.22,10.0,West,13.8,21.9,N/A,,Clear,280,2013-02-16 18:15:00
12:35 PM,28.0,15.6,60,30.21,10.0,West,13.8,18.4,N/A,,Clear,280,2013-02-16 18:35:00
12:55 PM,28.2,14.7,57,30.20,10.0,West,12.7,-,N/A,,Clear,270,2013-02-16 18:55:00
1:15 PM,28.4,14.2,55,30.19,10.0,West,11.5,18.4,N/A,,Clear,280,2013-02-16 19:15:00
1:35 PM,29.5,14.0,53,30.18,10.0,West,16.1,-,N/A,,Clear,270,2013-02-16 19:35:00
1:55 PM,29.7,14.4,53,30.18,10.0,West,11.5,-,N/A,,Clear,280,2013-02-16 19:55:00
2:15 PM,30.4,14.0,51,30.16,10.0,WNW,11.5,-,N/A,,Clear,300,2013-02-16 20:15:00
2:35 PM,30.7,13.8,50,30.16,10.0,WNW,11.5,19.6,N/A,,Clear,290,2013-02-16 20:35:00
2:55 PM,31.5,14.4,49,30.16,10.0,West,12.7,-,N/A,,Clear,280,2013-02-16 20:55:00
3:15 PM,31.1,12.0,45,30.16,10.0,WNW,13.8,20.7,N/A,,Clear,300,2013-02-16 21:15:00
3:35 PM,31.3,13.8,49,30.16,10.0,West,10.4,18.4,N/A,,Clear,280,2013-02-16 21:35:00
3:55 PM,31.6,13.5,47,30.16,10.0,WNW,10.4,-,N/A,,Clear,290,2013-02-16 21:55:00
4:15 PM,31.6,13.8,48,30.16,10.0,WNW,12.7,-,N/A,,Clear,290,2013-02-16 22:15:00
4:35 PM,31.3,12.9,47,30.16,10.0,West,12.7,-,N/A,,Clear,280,2013-02-16 22:35:00
4:55 PM,31.1,13.5,48,30.16,10.0,West,13.8,-,N/A,,Clear,280,2013-02-16 22:55:00
5:15 PM,30.9,13.3,48,30.16,10.0,WNW,12.7,-,N/A,,Clear,290,2013-02-16 23:15:00
5:35 PM,30.2,13.6,50,30.16,10.0,WNW,9.2,-,N/A,,Clear,300,2013-02-16 23:35:00
5:55 PM,29.7,13.5,51,30.16,10.0,WNW,8.1,-,N/A,,Clear,300,2013-02-16 23:55:00
6:15 PM,29.1,15.1,56,30.17,10.0,WNW,6.9,-,N/A,,Clear,300,2013-02-17 00:15:00
6:35 PM,28.6,17.2,63,30.17,10.0,WNW,4.6,-,N/A,,Clear,290,2013-02-17 00:35:00
6:55 PM,28.2,15.4,59,30.17,10.0,WNW,3.5,-,N/A,,Clear,300,2013-02-17 00:55:00
7:15 PM,27.5,15.8,61,30.17,10.0,Calm,Calm,-,N/A,,Clear,0,2013-02-17 01:15:00
7:35 PM,27.0,18.7,71,30.17,10.0,Calm,Calm,-,N/A,,Clear,0,2013-02-17 01:35:00
7:55 PM,26.4,19.6,75,30.18,10.0,Calm,Calm,-,N/A,,Clear,0,2013-02-17 01:55:00
8:15 PM,26.8,18.7,72,30.18,10.0,Calm,Calm,-,N/A,,Clear,0,2013-02-17 02:15:00
8:55 PM,26.4,18.9,73,30.18,10.0,Calm,Calm,-,N/A,,Clear,0,2013-02-17 02:55:00
9:15 PM,25.0,18.7,77,30.18,10.0,Calm,Calm,-,N/A,,Clear,0,2013-02-17 03:15:00
9:35 PM,26.4,19.6,75,30.18,10.0,West,4.6,-,N/A,,Clear,260,2013-02-17 03:35:00
9:55 PM,26.6,19.6,75,30.18,10.0,Calm,Calm,-,N/A,,Clear,0,2013-02-17 03:55:00
10:15 PM,23.9,19.2,82,30.18,10.0,Calm,Calm,-,N/A,,Clear,0,2013-02-17 04:15:00
10:35 PM,23.4,18.3,81,30.17,10.0,Calm,Calm,-,N/A,,Clear,0,2013-02-17 04:35:00
10:55 PM,23.0,19.0,85,30.17,10.0,Calm,Calm,-,N/A,,Clear,0,2013-02-17 04:55:00
11:15 PM,23.0,18.7,84,30.16,10.0,Calm,Calm,-,N/A,,Clear,0,2013-02-17 05:15:00
11:35 PM,22.5,17.2,80,30.16,10.0,Calm,Calm,-,N/A,,Clear,0,2013-02-17 05:35:00
11:55 PM,22.5,19.4,88,30.17,10.0,Calm,Calm,-,N/A,,Clear,0,2013-02-17 05:55:00